Amateur Radio Satellites - All Passes

Search period start: 20 May 2013 06:30
Search period end: 21 May 2013 06:30
Location: Warner Observatory, 35.1353°N, 89.5455°W

Satellite Date Start Highest point End Downlink Frequencies (MHz)
Time Altitude Azimuth
STRAND 1 20 May 06:44:14 06:49:19 79° 257° (WSW) 06:54:26 ?
Sapphire 20 May 06:53:20 06:56:18 15° 104° (ESE) 06:59:15 437.095 MHz 1200 baud AX-25 AFSK
Saudisat 1A 20 May 07:07:28 07:11:45 40° 304° (NW) 07:16:06 436.775 MHz
AO-7 20 May 07:11:33 07:19:09 41° 296° (WNW) 07:26:45 29.400 - 29.500 MHz
SO-67 20 May 07:39:13 07:39:59 11° 92° (E) 07:40:44 435.3500 MHz FM
PCSat 20 May 08:00:55 08:06:17 73° 114° (ESE) 08:11:42 145.825 MHz
KITSAT 1 20 May 08:01:13 08:08:17 31° 50° (NE) 08:15:18 435.175 FM
SO-50 20 May 08:04:19 08:05:25 11° 107° (ESE) 08:06:31 436.795 FM
JAS-1B 20 May 08:08:13 08:13:33 33° 96° (E) 08:18:35 435.800 - 435.900 CW/SSB
Hamsat 20 May 08:19:22 08:23:39 59° 285° (WNW) 08:27:57 145.90 MHz
Sapphire 20 May 08:33:49 08:39:08 60° 299° (WNW) 08:44:30 437.095 MHz 1200 baud AX-25 AFSK
SO-67 20 May 09:10:16 09:13:34 35° 286° (WNW) 09:16:50 435.3500 MHz FM
ISS 20 May 09:37:58 09:39:57 15° 28° (NNE) 09:41:55 145.800 FM
SO-50 20 May 09:40:39 09:45:27 71° 300° (WNW) 09:50:12 436.795 FM
PCSat 20 May 09:47:08 09:50:16 15° 311° (NW) 09:53:25 145.825 MHz
KITSAT 1 20 May 09:56:08 10:04:01 57° 249° (WSW) 10:11:53 435.175 FM
JAS-1B 20 May 09:59:07 10:04:05 27° 295° (WNW) 10:08:46 435.800 - 435.900 CW/SSB
Oscar 11 20 May 10:10:32 10:14:19 28° 97° (E) 10:18:05 145.825 FM, Beacon 2401.500 USB
OPAL 20 May 10:12:47 10:15:06 13° 94° (E) 10:17:24 ?
HO-68 20 May 10:17:27 10:24:33 63° 103° (ESE) 10:31:37 435.675 MHz FM
JAS-2 20 May 10:26:02 10:32:48 55° 99° (E) 10:38:44 435.800 - 435.900 CW/SSB, 435.910 FM
Oscar 10/S400 20 May 10:36:16 12:13:29 17° 280° (W) 15:05:37 145.825 - 145.975 CW/USB, Beacon 145.810 USB
ISS 20 May 11:13:38 11:17:00 73° 224° (SW) 11:20:21 145.800 FM
UOSAT-12 20 May 11:19:44 11:23:08 21° 110° (ESE) 11:26:33 437.025 FM, 437.400 FM
Oscar 11 20 May 11:47:04 11:50:21 21° 291° (WNW) 11:53:38 145.825 FM, Beacon 2401.500 USB
OPAL 20 May 11:49:25 11:54:20 58° 288° (WNW) 11:59:10 ?
MaSat-1 20 May 11:51:22 11:53:48 19° 56° (ENE) 11:55:55 437.345 MHz
HO-68 20 May 12:06:22 12:11:38 23° 299° (WNW) 12:16:55 435.675 MHz FM
JAS-2 20 May 12:12:03 12:17:12 23° 298° (WNW) 12:21:57 435.800 - 435.900 CW/SSB, 435.910 FM
Oscar 19 20 May 12:37:45 12:38:56 11° 62° (ENE) 12:40:06 437.125 CW, 437.150 USB
PANSAT 20 May 12:58:14 13:01:12 21° 166° (SSE) 13:04:10 not established
UOSAT-12 20 May 12:58:58 13:03:04 34° 306° (NW) 13:07:12 437.025 FM, 437.400 FM
Oscar 16 20 May 13:12:51 13:17:19 30° 69° (ENE) 13:21:48 437.025 USB, Beacon 2401.1428
AO-27 20 May 13:16:14 13:20:16 24° 67° (ENE) 13:24:19 436.795 MHz FM
ITAMSAT 1 20 May 13:23:17 13:27:33 27° 68° (ENE) 13:31:50 435.822 SSB
Uribyol 2 20 May 14:03:55 14:09:03 72° 75° (ENE) 14:14:14 436.500 FM
Oscar 19 20 May 14:12:20 14:17:32 82° 257° (WSW) 14:22:46 437.125 CW, 437.150 USB
Uosat F 20 May 14:29:12 14:32:10 16° 65° (ENE) 14:35:09 435.120 FM
AO-Echo 20 May 14:36:46 14:41:26 44° 73° (ENE) 14:45:59 ?
PANSAT 20 May 14:37:41 14:41:07 30° 179° (S) 14:44:34 not established
TMSAT-1 20 May 14:47:26 14:49:44 13° 63° (ENE) 14:52:02 436.925 FM
Oscar 16 20 May 14:52:13 14:56:36 28° 264° (W) 15:01:02 437.025 USB, Beacon 2401.1428
AO-27 20 May 14:54:51 14:59:34 36° 262° (W) 15:04:19 436.795 MHz FM
ITAMSAT 1 20 May 15:02:22 15:06:54 31° 263° (W) 15:11:28 435.822 SSB
Gurwin Techsat 1B 20 May 15:05:05 15:09:38 30° 69° (ENE) 15:14:12 435.225 FM
RS-15 20 May 15:30:22 15:40:05 30° 104° (ESE) 15:49:29 29.354 - 29.394 USB, Beacon 29.352 USB
Saudisat 1A 20 May 15:37:37 15:42:08 65° 59° (ENE) 15:46:32 436.775 MHz
Uribyol 2 20 May 15:47:51 15:49:00 11° 269° (W) 15:50:09 436.500 FM
Uosat F 20 May 16:05:41 16:10:31 51° 260° (W) 16:15:24 435.120 FM
AO-7 20 May 16:14:18 16:21:54 42° 64° (ENE) 16:29:32 29.400 - 29.500 MHz
AO-Echo 20 May 16:17:22 16:20:23 16° 266° (W) 16:23:22 ?
PANSAT 20 May 16:17:57 16:21:04 23° 192° (SSW) 16:24:10 not established
TMSAT-1 20 May 16:23:45 16:29:01 71° 258° (WSW) 16:34:19 436.925 FM
Gurwin Techsat 1B 20 May 16:44:59 16:49:31 29° 264° (W) 16:54:05 435.225 FM
PCSat 20 May 16:52:34 16:57:19 30° 56° (NE) 17:02:02 145.825 MHz
Saudisat 1A 20 May 17:20:38 17:21:12 10° 254° (WSW) 17:21:46 436.775 MHz
Sapphire 20 May 17:25:02 17:30:22 54° 61° (ENE) 17:35:39 437.095 MHz 1200 baud AX-25 AFSK
RS-15 20 May 17:39:29 17:51:34 71° 302° (WNW) 18:03:11 29.354 - 29.394 USB, Beacon 29.352 USB
AO-7 20 May 18:07:04 18:14:37 39° 261° (W) 18:22:14 29.400 - 29.500 MHz
SO-50 20 May 18:16:09 18:20:28 41° 56° (NE) 18:24:41 436.795 FM
PCSat 20 May 18:35:54 18:40:41 33° 251° (WSW) 18:45:27 145.825 MHz
JAS-1B 20 May 18:47:23 18:55:14 32° 66° (ENE) 19:02:12 435.800 - 435.900 CW/SSB
STRAND 1 20 May 18:58:21 19:03:17 45° 100° (E) 19:08:11 ?
Sapphire 20 May 19:09:54 19:13:17 17° 256° (WSW) 19:16:40 437.095 MHz 1200 baud AX-25 AFSK
Hamsat 20 May 19:10:10 19:14:19 65° 76° (ENE) 19:18:31 145.90 MHz
SO-67 20 May 19:42:43 19:46:07 45° 75° (ENE) 19:49:33 435.3500 MHz FM
UOSAT-12 20 May 19:54:34 19:54:52 10° 43° (NE) 19:55:09 437.025 FM, 437.400 FM
SO-50 20 May 19:57:50 20:00:42 17° 251° (WSW) 20:03:32 436.795 FM
RS-15 20 May 19:57:57 20:06:27 22° 327° (NNW) 20:14:44 29.354 - 29.394 USB, Beacon 29.352 USB
JAS-2 20 May 20:34:20 20:39:49 22° 61° (ENE) 20:45:22 435.800 - 435.900 CW/SSB, 435.910 FM
JAS-1B 20 May 20:35:58 20:45:21 58° 259° (W) 20:53:36 435.800 - 435.900 CW/SSB
STRAND 1 20 May 20:38:36 20:42:06 19° 294° (WNW) 20:45:36 ?
HO-68 20 May 20:42:59 20:49:14 34° 65° (ENE) 20:55:29 435.675 MHz FM
Oscar 11 20 May 21:04:00 21:06:38 16° 67° (ENE) 21:09:17 145.825 FM, Beacon 2401.500 USB
OPAL 20 May 21:24:08 21:27:44 19° 64° (ENE) 21:31:19 ?
UOSAT-12 20 May 21:31:07 21:35:44 83° 60° (ENE) 21:40:20 437.025 FM, 437.400 FM
JAS-2 20 May 22:16:23 22:23:55 76° 258° (WSW) 22:31:50 435.800 - 435.900 CW/SSB, 435.910 FM
RS-15 20 May 22:21:32 22:25:32 12° 5° (N) 22:29:28 29.354 - 29.394 USB, Beacon 29.352 USB
KITSAT 1 20 May 22:26:30 22:33:14 30° 106° (ESE) 22:39:59 435.175 FM
HO-68 20 May 22:30:08 22:36:44 40° 261° (W) 22:43:22 435.675 MHz FM
Oscar 11 20 May 22:38:32 22:42:32 37° 262° (W) 22:46:33 145.825 FM, Beacon 2401.500 USB
OPAL 20 May 23:01:14 23:06:14 47° 258° (WSW) 23:11:14 ?
JAS-2 21 May 00:07:43 00:09:58 11° 274° (W) 00:12:15 435.800 - 435.900 CW/SSB, 435.910 FM
KITSAT 1 21 May 00:20:22 00:28:10 53° 303° (WNW) 00:36:04 435.175 FM
AO-40 21 May 00:30:46 03:16:51 23° 122° (ESE) 04:43:10 Beacon 2401.320
RS-15 21 May 00:34:24 00:43:40 29° 40° (NE) 00:52:39 29.354 - 29.394 USB, Beacon 29.352 USB
MaSat-1 21 May 00:39:52 00:42:27 12° 101° (E) 00:44:55 437.345 MHz
Oscar 16 21 May 01:29:25 01:31:51 13° 92° (E) 01:34:17 437.025 USB, Beacon 2401.1428
AO-27 21 May 01:35:37 01:35:53 10° 91° (E) 01:36:08 436.795 MHz FM
ITAMSAT 1 21 May 01:41:12 01:43:08 12° 92° (E) 01:45:04 435.822 SSB
MaSat-1 21 May 02:16:46 02:24:09 81° 111° (ESE) 02:30:23 437.345 MHz
ISS 21 May 02:18:12 02:20:27 17° 128° (SE) 02:22:43 145.800 FM
Uribyol 2 21 May 02:20:23 02:25:06 34° 98° (E) 02:29:48 436.500 FM
KITSAT 1 21 May 02:22:35 02:25:39 12° 326° (NW) 02:28:44 435.175 FM
Oscar 19 21 May 02:27:33 02:32:32 46° 99° (E) 02:37:27 437.125 CW, 437.150 USB
RS-15 21 May 02:46:15 02:57:19 82° 244° (WSW) 03:08:10 29.354 - 29.394 USB, Beacon 29.352 USB
AO-Echo 21 May 02:48:05 02:51:19 18° 95° (E) 02:54:35 ?
Oscar 16 21 May 03:06:28 03:11:34 60° 286° (WNW) 03:16:37 437.025 USB, Beacon 2401.1428
AO-27 21 May 03:10:40 03:15:54 77° 285° (WNW) 03:21:06 436.795 MHz FM
ITAMSAT 1 21 May 03:17:51 03:23:03 67° 286° (WNW) 03:28:13 435.822 SSB
Gurwin Techsat 1B 21 May 03:25:35 03:28:39 15° 92° (E) 03:31:43 435.225 FM
ISS 21 May 03:53:50 03:56:56 36° 323° (NW) 04:00:04 145.800 FM
Uribyol 2 21 May 04:00:10 04:04:24 25° 292° (WNW) 04:08:36 436.500 FM
MaSat-1 21 May 04:02:14 04:06:41 18° 304° (WNW) 04:10:42 437.345 MHz
Oscar 19 21 May 04:08:00 04:11:29 19° 294° (WNW) 04:14:57 437.125 CW, 437.150 USB
Uosat F 21 May 04:16:34 04:21:34 64° 102° (ESE) 04:26:33 435.120 FM
AO-7 21 May 04:21:44 04:25:57 15° 92° (E) 04:30:08 29.400 - 29.500 MHz
AO-Echo 21 May 04:25:49 04:30:13 39° 288° (WNW) 04:34:41 ?
TMSAT-1 21 May 04:42:59 04:48:15 62° 101° (E) 04:53:29 436.925 FM
RS-15 21 May 05:02:31 05:07:46 15° 262° (W) 05:13:02 29.354 - 29.394 USB, Beacon 29.352 USB
Gurwin Techsat 1B 21 May 05:03:44 05:08:55 55° 287° (WNW) 05:14:05 435.225 FM
Saudisat 1A 21 May 05:41:58 05:46:09 37° 114° (ESE) 05:50:23 436.775 MHz
Uosat F 21 May 05:57:31 05:59:47 13° 297° (WNW) 06:02:04 435.120 FM
AO-7 21 May 06:11:12 06:19:37 88° 107° (ESE) 06:28:00 29.400 - 29.500 MHz
STRAND 1 21 May 06:11:19 06:16:10 47° 72° (ENE) 06:21:03 ?
TMSAT-1 21 May 06:24:44 06:27:37 15° 296° (WNW) 06:30:29 436.925 FM
KITSAT 1 21 May 06:25:29 06:26:55 11° 31° (NNE) 06:28:21 435.175 FM

Developed and maintained by Chris Peat, Heavens-Above GmbH. Please read the updated FAQ before sending e-mail. Imprint. DLR
